{"data":{"norad_id":67646,"epoch":"2026-05-25T02:25:39.383328Z","epoch_age_seconds":60130,"freshness":"FRESH","line1":"1 67646U 26021A   26145.10115027  .00004910  00000+0  21064-3 0  9994","line2":"2 67646  97.4591 219.0106 0013940 242.7642 117.2174 15.23116216 17356","mean_motion":15.23116216,"eccentricity":0.001394,"inclination_deg":97.4591,"raan_deg":219.0106,"arg_perigee_deg":242.7642,"mean_anomaly_deg":117.2174,"bstar":0.00021064,"rev_number":1735,"period_min":94.543015488452,"perigee_km":486.86473264635,"apogee_km":506.03107535871,"semimajor_km":6874.5849040025,"source":"CELESTRAK","updated_at":"2026-05-25T13:38:07.154197Z"}}